www.pogodaiklimat.ru

Погода и климат >> Архив погоды >> Россия >> Калмыкия >> Малые Дербеты


ПОГОДА в Малых Дербетах

  • Прогноз погоды в Малых Дербетах
  • Монитор погоды в Малых Дербетах
  • Климат города

АРХИВ ПОГОДЫ в Малых Дербетах

Время (UTC), дата Ветер
(напр.,м/с)
 
Видим.   Явления Облачность Т
(С)
Тd
(С)
f
(%)
Тe
(С)
Тes
(С)
Комфортность P
(гПа)
Po
(гПа)
Тmin
(С)
Tmax
(С)
R
(мм)
R24
(мм)
S
(см)
21 12.10 З 2 4000 м слабый ливневой дождь 10/10 450 м
[Cb cap]
+10.4 +8.2 86 +9 +9 1018.1 1017.0
00 13.10 ЮЗ 2 20 км {ливн. осадки} 10/0
[Cs]
+10.0 +8.6 91 +8 +8 1017.6 1016.5
03 13.10 ЮЗ 1 20 км 9/0
[As trans]
+10.0 +8.9 93 +9 +9 1017.6 1016.5 +9.9 1
06 13.10 ЮЗ 3 20 км 10/4 600 м
[Cu med, cong Ac trans]
+12.2 +9.0 81 +11 +11 1018.4 1017.3
09 13.10 ЮЗ 3 20 км 10/3 600 м
[Cu med, cong Ac und]
+15.2 +8.1 63 +15 +16 1017.6 1016.5
12 13.10 ЮЗ 3 20 км 10/3 600 м
[Cu med, cong Ac trans]
+17.3 +9.0 58 +17 +18 1016.2 1015.1
15 13.10 ЮЗ 2 4000 м слабый ливневой дождь 9/6 600 м
[Cb cap Ac As]
+14.2 +12.7 91 +14 +14 1016.0 1014.9 +17.4 1
18 13.10 Ю 1 10 км слабый ливневой дождь 9/5 600 м
[Cb cap Ac As]
+14.4 +12.6 89 +15 +15 1015.6 1014.5
21 13.10 Ю 1 20 км {ливн. осадки} 10/0
[Cs]
+12.7 +11.2 91 +13 +13 1014.7 1013.6
00 14.10 Ю 2 20 км {ливн. осадки} 6/0
[Ci fib]
+12.2 +9.7 85 +11 +11 1013.6 1012.5
03 14.10 Ю 1 20 км 10/0
[Ci sp]
+10.9 +9.2 89 +11 +11 1013.2 1012.1 +10.9 0.4
06 14.10 Ю 3 20 км 9/0
[Ac As]
+13.9 +9.4 74 +13 +14 1012.8 1011.7 +10.7
09 14.10 ЮЗ 4
{10}
20 км 9/6 600 м
[Cu med, cong Ac As]
+14.5 +9.9 74 +13 +14 1012.3 1011.2
12 14.10 ЮЗ 3 10 км слабый ливневой дождь 9/5 600 м
[Cb cap Ac As]
+13.1 +8.7 75 +12 +12 1012.2 1011.2
15 14.10 Ю 2 20 км {ливн. осадки} 10/0
[Ac lent Ci sp]
+11.6 +6.2 69 +11 +11 1012.9 1011.8 +15.2 0.0
18 14.10 ЮЗ 1 20 км {ливн. осадки} 10/0
[Cs]
+8.8 +5.7 81 +8 +8 1013.3 1012.2
21 14.10 Ю 2 20 км 10/0
[Ci sp]
+8.8 +6.0 83 +7 +7 1012.9 1011.8
00 15.10 Ю 2 20 км 6/0
[Ac trans]
+8.4 +6.6 88 +6 +6 1012.0 1010.9
03 15.10 ЮЗ 1 20 км 9/0
[Ac As]
+7.7 +6.1 90 +7 +7 1012.4 1011.3 +7.7
06 15.10 ЮЗ 3 20 км 3/3 600 м
[Cu med, cong Ac lent]
+11.2 +7.6 78 +9 +11 1012.0 1010.9 +7.1
09 15.10 ЮЗ 3 20 км 9/6 600 м
[Cu med, cong Ac As]
+12.3 +7.7 73 +11 +12 1011.1 1010.0
12 15.10 З 4
{11}
20 км {ливн. осадки} 9/6 600 м
[Cu med, cong Ac As]
+10.5 +5.9 73 +8 +8 1010.2 1009.1
15 15.10 ЮЗ 2
{11}
20 км 9/0
[Ac As]
+8.8 +2.6 65 +7 +7 1009.0 1007.9 +12.8 0.0
18 15.10 ЮЗ 2 4000 м слабый ливневой дождь 10/10 500 м
[Cb cap]
+7.2 +5.1 86 +5 +5 1005.5 1004.4
21 15.10 Ю 4 4000 м слабый ливневой дождь 10/10 480 м
[Cb cap]
+7.7 +6.7 93 +4 +4 1000.2 999.1
00 16.10 З 4 10 км слабый ливневой дождь 10/10 500 м
[Cb cap]
+9.2 +7.2 87 +6 +6 998.4 997.3
03 16.10 З 4
{10}
20 км {ливн. осадки} 9/9 500 м
[Sc]
+8.1 +5.4 83 +5 +5 999.6 998.5 +6.8 4
06 16.10 З 8 20 км {ливн. осадки} 9/4 600 м
[Cu med, cong Ac As]
+5.9 +2.6 79 +1 +1 1002.4 1001.3 +5.9
09 16.10 СЗ 7 20 км {ливн. осадки} 9/9 570 м
[Sc]
+6.9 +2.0 71 +2 +2 1005.3 1004.2
12 16.10 З 5
{15}
20 км {ливн. осадки} 10/4 600 м
[Sc Ac trans]
+9.0 +3.7 69 +6 +6 1007.5 1006.4
15 16.10 З 5 10 км слабый ливневой дождь 9/8 600 м
[Cb cap Ac As]
+7.4 +4.9 84 +3 +3 1009.8 1008.7 +9.5 0.3
18 16.10 З 4
{14}
20 км {ливн. осадки} 9/0
[Ac As]
+7.0 +3.7 79 +4 +4 1010.6 1009.5
21 16.10 З 5-11
{13}
20 км 9/0
[Ac As]
+7.0 +3.4 78 +3 +3 1010.8 1009.7
00 17.10 З 4
{12}
20 км 3/0
[Ac lent]
+6.6 +3.1 78 +3 +3 1011.8 1010.7
03 17.10 З 4
{11}
20 км 3/0
[Ac lent]
+5.9 +2.7 80 +2 +2 1012.6 1011.5 +5.9 0.0
06 17.10 З 4-10
{10}
20 км 9/0
[Ac und]
+7.9 +3.2 72 +5 +5 1014.3 1013.2 +5.8
09 17.10 З 5
{11}
20 км 6/6 600 м
[Cu med, cong]
+10.0 +2.5 60 +7 +8 1014.8 1013.7
12 17.10 З 5
{10}
20 км 9/0
[Ac As]
+9.6 +1.7 58 +7 +7 1014.8 1013.7
15 17.10 З 2 20 км 9/0
[Ac As]
+10.0 +3.5 64 +9 +9 1015.2 1014.1 +10.7
18 17.10 ЮЗ 2 20 км 9/0
[Ac As]
+9.3 +4.3 71 +8 +8 1015.6 1014.5
21 17.10 З 4 20 км 9/0
[Ac As]
+9.5 +6.2 80 +7 +7 1016.1 1015.0
00 18.10 З 3 20 км 9/0
[Ac As]
+10.4 +6.8 78 +8 +8 1018.0 1016.9
03 18.10 З 3 20 км 10/0
[Ac lent Cs]
+7.0 +4.8 86 +4 +4 1020.3 1019.1 +7.0
06 18.10 З 2 20 км ясно +9.1 +5.0 75 +8 +10 1022.9 1021.8 +5.9
09 18.10 ЮЗ 3 20 км ясно +13.1 +7.2 67 +12 +17 1022.5 1021.4
12 18.10 ЮЗ 3 20 км ясно +13.3 +7.3 67 +12 +14 1021.8 1020.7
15 18.10 ЮЗ 2 20 км ясно +10.7 +7.7 82 +9 +9 1021.3 1020.2 +13.5
18 18.10 Ю 1 20 км ясно +9.0 +7.2 88 +8 +8 1020.9 1019.8
21 18.10 ЮЗ 3 20 км ясно +9.8 +6.9 82 +8 +8 1020.1 1019.0
00 19.10 Ю 2 20 км 10/0
[Ci fib]
+9.2 +6.5 83 +8 +8 1019.4 1018.3
03 19.10 ЮЗ 2 20 км 10/0
[Cs]
+9.1 +7.4 89 +7 +7 1019.4 1018.3 +8.2
06 19.10 ЮЗ 3 20 км ясно +12.3 +8.6 78 +11 +13 1019.3 1018.2
09 19.10 ЮЗ 4 20 км 3/0
[Ci fib]
+17.0 +10.6 66 +17 +20 1018.4 1017.3
12 19.10 ЮЗ 5
{11}
20 км ясно +17.7 +10.1 61 +17 +18 1017.8 1016.7
15 19.10 ЮЗ 1 20 км 8/0
[Ci fib]
+14.6 +10.3 75 +15 +15 1017.5 1016.4 +18.6

 

Местоположение метеостанции Малые Дербеты (Калмыкия, Россия): широта 47.93 долгота 44.70 высота над уровнем моря 9 м.

В архиве по умолчанию представлена погода в Малых Дербетах за последнюю неделю. Архивные данные за месяц целиком и за предыдущие месяцы, начиная с января 2011 года, Вы можете получить, выбрав интересующий диапазон дат из раскрывающегося списка и нажав кнопку "Ввод!".

Внимание! Время в таблицах - всемирное. Для получения местного времени необходимо прибавить поправку, которая в Малых Дербетах равна 3 ч.

Смотрите также архив погоды в соседних городах и на ближайших метеорологических станциях:

Погода в Кетченерах (Калмыкия, Россия) (69 км)
Погода в Волгограде город (Волгоградская область, Россия) (84 км)
Погода в Волгограде (Волгоградская область, Россия) (98 км)
Погода в Черный Яр (Астраханская область, Россия) (107 км)
Погода в Котельниково (Волгоградская область, Россия) (121 км)
Погода в Калаче-на-Дону (Волгоградская область, Россия) (123 км)
Погода в Нижнем Чире (Волгоградская область, Россия) (125 км)
Погода в Юсте (Калмыкия, Россия) (151 км)
Погода в Верхнем Баскунчаке (Астраханская область, Россия) (154 км)
Погода в Иловле (Волгоградская область, Россия) (161 км)

Пояснения к столбцам:

Ветер - указаны скорость ветра в м/с - средняя за 10 мин, порывы в срок и между сроками (в фигурных скобках) и направление, откуда дует ветер: С - северный, СВ - северо-восточный, В - восточный, ЮВ - юго-восточный, Ю - южный, ЮЗ - юго-западный, З - западный, СЗ - северо-западный.
Видимость - горизонтальная дальность видимости в метрах или километрах. При видимости от 1 до 10 км при отсутствии осадков обычно наблюдается дымка, при ухудшении видимости до 1 км и менее - туман. В сухую погоду видимость может ухудшаться дымом, пылью или мглою.
Явления - указаны атмосферные явления, наблюдавшиеся в срок или в последний час перед сроком; фигурными скобками обозначены явления, наблюдавшиеся между сроками (за 1-3 часа до срока); квадратными скобками обозначены град или гололедные отложения с указанием их диаметра в мм.
Облачность - указаны через наклонную черту общая и нижняя облачность в баллах и высота нижней границы облаков в метрах; квадратными скобками обозначены формы облаков: Ci - перистые, Cs - перисто-слоистые, Cc - перисто-кучевые, Ac - высококучевые, As - высокослоистые, Sc - слоисто-кучевые, Ns - слоисто-дождевые, Cu - кучевые, Cb - кучево-дождевые. Подробнее классификацию облаков см. в Атласе облаков (PDF).
T - Температура воздуха - температура, измеренная на высоте 2 м над землей.
Td - Температура точки росы - температура, при понижении до которой содержащийся в воздухе водяной пар достигнет насыщения.
f - Относительная влажность воздуха - влажноcть воздуха, измеренная на высоте 2 м над землей.
Te - Эффективная температура - температура, которую ощущает одетый по сезону человек в тени. Характеристика душности погоды. При расчете учитывается влияние влажности воздуха и скорости ветра на теплоощущения человека.
Tes - Эффективная температура на солнце - температура, которую ощущает человек, с поправкой на солнечный нагрев. Характеристика знойности погоды. Зависит от высоты солнца над горизонтом, облачности и скорости ветра. Ночью, в пасмурную погоду, а также при ветре 12 м/с и более поправка равна нулю.
P - Атмосферное давление - приведенное к уровню моря атмосферное давление.
Po - Атмосферное давление - измеренное на уровне метеостанции атмосферное давление.
Tmin - Минимальная температура - минимум температуры воздуха на высоте 2 м над землей.
Tmax - Максимальная температура - максимум температуры воздуха на высоте 2 м над землей.
R - Количество осадков - Количество выпавших осадков за период времени, мм. При наведении курсора мыши на число - период времени, за который выпало указанное количество осадков.
R24 - Количество осадков - Количество выпавших осадков за 24 часа, мм.
S - Снежный покров - Высота снежного покрова, см. При наведении курсора мыши на число - состояние снежного покрова и степень покрытия местности в баллах.